Weather History for Marion, VA

Change the Weather History Date:

Sunday, December 30, 2012

  Actual Average (KGEV) Record (KGEV)
Temperature  
Mean Temperature 29 °F -  
Max Temperature 34 °F 44 °F 66 °F (1990)
Min Temperature 24 °F 24 °F 2 °F (1983)
Degree Days  
Heating Degree Days 36    
Moisture  
Dew Point 21 °F    
Average Humidity 72    
Maximum Humidity 86    
Minimum Humidity 53    
Precipitation  
Precipitation 0.00 in - - ()
Sea Level Pressure  
Sea Level Pressure 30.26 in    
Wind  
Wind Speed 20 mph (West)    
Max Wind Speed 30 mph    
Max Gust Speed 46 mph    
Visibility 10 miles    
Events Snow    
Averages and records for this station are not official NWS values.
T = Trace of Precipitation, MM = Missing Value Source: NWS Daily Summary

Daily Weather History Graph

Daily Weather History Graph

Search for Another Location

Airport:

Trip Planner

Search our weather history database for the weather conditions in past years. The results will help you decide how hot, cold, wet, or windy it might be!

Date:

Astronomy

Dec. 30, 2012 Rise Set
Actual Time 7:38 AM EST 5:18 PM EST
Civil Twilight 7:09 AM EST 5:47 PM EST
Nautical Twilight 6:36 AM EST 6:19 PM EST
Astronomical Twilight 6:05 AM EST 6:51 PM EST
Moon 7:44 PM EST 8:49 AM EST
Length of Visible Light 10h 38m
Length of Day
9h 40m
Waning Gibbous, 95% of the Moon is Illuminated
Dec 30
Waning Gibbous
Jan 4
Last Quarter
Jan 11
New
Jan 18
First Quarter
Jan 26
Full

Hourly Weather History & Observations

Time (EST) Temp. Windchill Dew Point Humidity Pressure Visibility Wind Dir Wind Speed Gust Speed Precip Events Conditions
12:15 AM 30.2 °F 15.9 °F 23.5 °F 76% 29.97 in 5.0 mi West 26.5 mph 42.6 mph N/A Snow Light Snow
12:35 AM 30.0 °F 14.9 °F 23.4 °F 76% 29.98 in 5.0 mi WNW 29.9 mph 46.0 mph N/A Snow Light Snow
12:55 AM 29.3 °F 14.2 °F 23.2 °F 78% 30.00 in 5.0 mi West 28.8 mph 39.1 mph N/A Snow Light Snow
1:15 AM 29.1 °F 14.2 °F 22.5 °F 76% 30.01 in 5.0 mi West 27.6 mph 40.3 mph N/A Snow Light Snow
1:55 AM 28.4 °F 13.8 °F 21.0 °F 74% 30.02 in 7.0 mi West 25.3 mph 39.1 mph N/A Snow Light Snow
2:15 AM 28.0 °F 13.9 °F 19.6 °F 71% 30.04 in 10.0 mi West 23.0 mph 35.7 mph N/A   Overcast
2:35 AM 28.0 °F 13.6 °F 18.9 °F 68% 30.06 in 10.0 mi West 24.2 mph 39.1 mph N/A   Overcast
2:55 AM 27.9 °F 13.4 °F 19.0 °F 69% 30.07 in 10.0 mi West 24.2 mph 41.4 mph N/A Snow Light Snow
3:15 AM 27.5 °F 13.5 °F 19.0 °F 71% 30.09 in 10.0 mi West 21.9 mph 33.4 mph N/A Snow Light Snow
3:35 AM 27.5 °F 13.2 °F 19.4 °F 72% 30.11 in 10.0 mi West 23.0 mph 32.2 mph N/A   Overcast
3:55 AM 27.3 °F 13.6 °F 18.9 °F 70% 30.13 in 10.0 mi West 20.7 mph 27.6 mph N/A Snow Light Snow
4:15 AM 27.1 °F 14.1 °F 19.9 °F 74% 30.14 in 7.0 mi West 18.4 mph 25.3 mph N/A Snow Light Snow
4:35 AM 26.6 °F 13.8 °F 19.4 °F 74% 30.14 in 5.0 mi West 17.3 mph 28.8 mph N/A Snow Light Snow
4:55 AM 26.4 °F 12.5 °F 19.2 °F 74% 30.16 in 10.0 mi West 20.7 mph 27.6 mph N/A Snow Light Snow
5:15 AM 26.2 °F 14.2 °F 19.6 °F 76% 30.17 in 7.0 mi WNW 15.0 mph 28.8 mph N/A Snow Light Snow
5:35 AM 26.2 °F 12.2 °F 19.4 °F 75% 30.18 in 7.0 mi WNW 20.7 mph 29.9 mph N/A Snow Light Snow
5:55 AM 26.2 °F 14.2 °F 19.4 °F 75% 30.20 in 10.0 mi WNW 15.0 mph 28.8 mph N/A   Overcast
6:15 AM 26.1 °F 11.0 °F 19.6 °F 76% 30.21 in 10.0 mi WNW 24.2 mph 29.9 mph N/A Snow Light Snow
6:35 AM 26.1 °F 11.6 °F 20.3 °F 79% 30.21 in 10.0 mi WNW 21.9 mph 29.9 mph N/A Snow Light Snow
6:55 AM 26.1 °F 12.7 °F 20.3 °F 79% 30.22 in 10.0 mi West 18.4 mph 28.8 mph N/A   Overcast
7:15 AM 26.1 °F 12.3 °F 19.9 °F 78% 30.24 in 10.0 mi West 19.6 mph 29.9 mph N/A   Overcast
7:35 AM 25.7 °F 11.5 °F 19.4 °F 77% 30.25 in 10.0 mi WNW 20.7 mph 27.6 mph N/A   Overcast
7:55 AM 25.7 °F 12.7 °F 19.2 °F 76% 30.28 in 10.0 mi West 17.3 mph 28.8 mph N/A   Overcast
8:15 AM 25.5 °F 12.4 °F 18.7 °F 75% 30.28 in 10.0 mi West 17.3 mph 27.6 mph N/A   Overcast
8:35 AM 25.2 °F 9.8 °F 18.3 °F 75% 30.27 in 10.0 mi WNW 24.2 mph 29.9 mph N/A   Overcast
8:55 AM 24.8 °F 10.0 °F 18.0 °F 75% 30.28 in 10.0 mi West 21.9 mph 27.6 mph N/A   Overcast
9:15 AM 25.0 °F 11.3 °F 18.3 °F 76% 30.30 in 10.0 mi West 18.4 mph 27.6 mph N/A   Overcast
9:35 AM 25.2 °F 12.4 °F 18.3 °F 75% 30.31 in 10.0 mi West 16.1 mph 26.5 mph N/A   Overcast
9:55 AM 25.5 °F 11.3 °F 18.5 °F 75% 30.32 in 10.0 mi West 20.7 mph 27.6 mph N/A   Overcast
10:15 AM 26.1 °F 13.1 °F 18.9 °F 74% 30.33 in 10.0 mi West 17.3 mph 24.2 mph N/A   Overcast
10:35 AM 26.2 °F 15.2 °F 18.5 °F 73% 30.34 in 10.0 mi West 12.7 mph 26.5 mph N/A   Mostly Cloudy
10:55 AM 27.1 °F 16.4 °F 19.4 °F 73% 30.34 in 10.0 mi West 12.7 mph 19.6 mph N/A   Mostly Cloudy
11:15 AM 27.9 °F 15.5 °F 19.8 °F 72% 30.33 in 10.0 mi West 17.3 mph 21.9 mph N/A   Overcast
11:35 AM 28.6 °F 18.2 °F 20.1 °F 71% 30.32 in 10.0 mi West 12.7 mph 25.3 mph N/A   Overcast
11:55 AM 28.4 °F 15.1 °F 19.9 °F 71% 30.31 in 10.0 mi WNW 20.7 mph 25.3 mph N/A   Mostly Cloudy
12:15 PM 29.7 °F 19.1 °F 19.9 °F 67% 30.31 in 10.0 mi West 13.8 mph 23.0 mph N/A   Scattered Clouds
12:35 PM 31.3 °F 21.1 °F 21.4 °F 67% 30.31 in 10.0 mi West 13.8 mph - N/A   Scattered Clouds
12:55 PM 32.0 °F 20.8 °F 21.6 °F 65% 30.30 in 10.0 mi WSW 17.3 mph 24.2 mph N/A   Mostly Cloudy
1:15 PM 32.0 °F 20.8 °F 21.0 °F 64% 30.30 in 10.0 mi West 17.3 mph 26.5 mph N/A   Mostly Cloudy
1:35 PM 32.2 °F 20.4 °F 21.0 °F 63% 30.30 in 10.0 mi West 19.6 mph 25.3 mph N/A   Scattered Clouds
1:55 PM 32.0 °F 21.2 °F 21.2 °F 64% 30.31 in 10.0 mi West 16.1 mph 26.5 mph N/A   Scattered Clouds
2:15 PM 32.9 °F 22.4 °F 21.2 °F 62% 30.31 in 10.0 mi West 16.1 mph 27.6 mph N/A   Clear
2:35 PM 33.8 °F 23.5 °F 21.2 °F 60% 30.32 in 10.0 mi West 16.1 mph 26.5 mph N/A   Clear
2:55 PM 34.0 °F 23.0 °F 21.0 °F 59% 30.32 in 10.0 mi West 18.4 mph 26.5 mph N/A   Clear
3:15 PM 34.0 °F 23.8 °F 21.2 °F 60% 30.31 in 10.0 mi West 16.1 mph 20.7 mph N/A   Clear
3:35 PM 34.0 °F 22.7 °F 19.8 °F 56% 30.31 in 10.0 mi West 19.6 mph 25.3 mph N/A   Clear
3:55 PM 33.8 °F 22.8 °F 19.4 °F 56% 30.30 in 10.0 mi West 18.4 mph 23.0 mph N/A   Clear
4:15 PM 33.8 °F 24.3 °F 18.3 °F 53% 30.30 in 10.0 mi West 13.8 mph 24.2 mph N/A   Clear
4:35 PM 32.9 °F 24.1 °F 18.9 °F 56% 30.30 in 10.0 mi West 11.5 mph - N/A   Clear
4:55 PM 32.0 °F 21.6 °F 19.0 °F 59% 30.29 in 10.0 mi West 15.0 mph - N/A   Clear
5:15 PM 31.8 °F 22.8 °F 18.9 °F 59% 30.30 in 10.0 mi West 11.5 mph - N/A   Clear
5:35 PM 31.5 °F 21.8 °F 19.0 °F 60% 30.30 in 10.0 mi West 12.7 mph - N/A   Clear
5:55 PM 30.9 °F 22.8 °F 19.9 °F 64% 30.32 in 10.0 mi WSW 9.2 mph - N/A   Clear
6:15 PM 30.6 °F 20.2 °F 22.5 °F 72% 30.34 in 10.0 mi West 13.8 mph 18.4 mph N/A   Clear
6:35 PM 30.6 °F 19.8 °F 22.8 °F 73% 30.35 in 10.0 mi West 15.0 mph 23.0 mph N/A   Clear
6:55 PM 30.2 °F 19.3 °F 23.0 °F 75% 30.35 in 10.0 mi WSW 15.0 mph 21.9 mph N/A   Clear
7:15 PM 30.0 °F 20.5 °F 23.0 °F 75% 30.36 in 10.0 mi WSW 11.5 mph 18.4 mph N/A   Clear
7:35 PM 29.8 °F 19.8 °F 23.0 °F 76% 30.36 in 10.0 mi WSW 12.7 mph - N/A   Clear
7:55 PM 29.5 °F 18.4 °F 23.0 °F 77% 30.36 in 10.0 mi West 15.0 mph 21.9 mph N/A   Clear
8:15 PM 29.3 °F 19.6 °F 22.8 °F 77% 30.36 in 10.0 mi WSW 11.5 mph - N/A   Clear
8:35 PM 29.1 °F 18.9 °F 22.6 °F 77% 30.36 in 10.0 mi West 12.7 mph - N/A   Clear
8:55 PM 28.4 °F 19.7 °F 22.6 °F 79% 30.35 in 10.0 mi WSW 9.2 mph - N/A   Clear
9:15 PM 27.5 °F 18.0 °F 22.5 °F 81% 30.35 in 10.0 mi West 10.4 mph - N/A   Clear
9:35 PM 27.5 °F 17.4 °F 22.5 °F 81% 30.35 in 10.0 mi West 11.5 mph - N/A   Clear
9:55 PM 27.7 °F 17.6 °F 22.5 °F 81% 30.35 in 10.0 mi West 11.5 mph - N/A   Clear
10:15 PM 27.1 °F 16.9 °F 22.1 °F 81% 30.35 in 10.0 mi West 11.5 mph - N/A   Clear
10:35 PM 26.4 °F 16.6 °F 22.1 °F 84% 30.35 in 10.0 mi West 10.4 mph - N/A   Clear
10:55 PM 25.7 °F 15.7 °F 21.9 °F 86% 30.34 in 10.0 mi West 10.4 mph - N/A   Clear
11:15 PM 25.5 °F 14.9 °F 21.9 °F 86% 30.33 in 10.0 mi West 11.5 mph - N/A   Clear
11:35 PM 25.5 °F 14.9 °F 21.7 °F 86% 30.34 in 10.0 mi West 11.5 mph - N/A   Clear
11:55 PM 25.5 °F 15.5 °F 21.7 °F 86% 30.32 in 10.0 mi West 10.4 mph - N/A   Clear